This is the latest recevied weather packets stored in our database for station/object IZ3LCH-13. If no packets are shown the sender has not sent any weather packets the latest 1 day(s).
| Time | Temp. | Humidity | Pressure | Rain* | Wind** | Luminosity | Snow |
|---|---|---|---|---|---|---|---|
| 1777972803 | 15.56° C | 77% | 1014.1 hPa | 0.25 mm | 1.34 m/s, 51° | - | - |
| 1777972503 | 15.56° C | 77% | 1014.2 hPa | 0.25 mm | 1.34 m/s, 45° | - | - |
| 1777972203 | 15.56° C | 76% | 1013.9 hPa | 0.25 mm | 0.89 m/s, 37° | - | - |
| 1777971903 | 15.56° C | 76% | 1013.8 hPa | 0.25 mm | 0.89 m/s, 26° | - | - |
| 1777971603 | 15.56° C | 76% | 1013.9 hPa | 0.25 mm | 0.89 m/s, 23° | - | - |
| 1777971303 | 15.56° C | 75% | 1013.9 hPa | 0.25 mm | 0.89 m/s, 10° | - | - |
| 1777971003 | 16.11° C | 74% | 1013.9 hPa | 0.25 mm | 0.45 m/s, 4° | - | - |
| 1777970703 | 16.11° C | 74% | 1013.8 hPa | 0.25 mm | 0.45 m/s, 41° | - | - |
| 1777970403 | 16.11° C | 73% | 1013.9 hPa | 0.25 mm | 0 m/s | - | - |
| 1777970103 | 16.11° C | 73% | 1013.8 hPa | 0 mm | 0.45 m/s, 110° | - | - |
| 1777969803 | 16.11° C | 72% | 1014.1 hPa | 0 mm | 0.45 m/s, 122° | - | - |
| 1777969503 | 16.11° C | 72% | 1014.2 hPa | 0 mm | 0.45 m/s, 131° | - | - |
| 1777969203 | 16.11° C | 72% | 1014.1 hPa | 0 mm | 0.45 m/s, 88° | - | - |
| 1777968903 | 16.11° C | 70% | 1014 hPa | 0 mm | 0.45 m/s, 34° | - | - |
| 1777968603 | 16.11° C | 70% | 1014 hPa | 0 mm | 0.45 m/s, 25° | - | - |
| 1777968303 | 16.11° C | 70% | 1013.8 hPa | 0 mm | 0.45 m/s, 27° | - | - |
| 1777968003 | 16.11° C | 70% | 1013.6 hPa | 0 mm | 0.45 m/s, 31° | - | - |
| 1777967703 | 16.11° C | 70% | 1014 hPa | 0 mm | 0 m/s | - | - |
| 1777967404 | 16.11° C | 71% | 1013.8 hPa | 0 mm | 0.45 m/s, 27° | - | - |
| 1777967103 | 16.11° C | 71% | 1013.7 hPa | 0 mm | 0.45 m/s, 68° | - | - |
| 1777966803 | 15.56° C | 71% | 1013.9 hPa | 0 mm | 0.45 m/s, 117° | - | - |
| 1777966503 | 15.56° C | 72% | 1014.2 hPa | 0 mm | 0.89 m/s, 128° | - | - |
| 1777966203 | 15.56° C | 72% | 1013.9 hPa | 0 mm | 0.89 m/s, 128° | - | - |
| 1777965903 | 15.56° C | 72% | 1013.9 hPa | 0 mm | 0.89 m/s, 120° | - | - |
| 1777965603 | 16.11° C | 72% | 1013.7 hPa | 0 mm | 0.89 m/s, 115° | - | - |
* Rain latest hour (hover to see other rain measurements)
** Current wind speed in m/s (hover to see current wind gust speed)